weather.gov     
National Weather Service

Terminal Aerodrome Forecast
NWS Homepage
This page is being discontinued on March 12, 2014.
The same data is available at this site. Please update your bookmarks.
Thank you, and we apologize for the inconvenience.
Please send an email to SR-SRH.Webmaster@noaa.gov with any concerns.


Current Version
Previous Version:    01  02  03  04  05  06  07  08  09  10  11  12  13  14  15  16  17  18  19  20  21  22  23  24  25  26  27  28  29  30  
   31  32  33  34  35  
[Printable]
421
FTUS41 KCLE 211100
TAFYNG
TAF
KYNG 211126Z 2112/2212 30008KT 3SM -DZ BKN006 OVC035
      TEMPO 2112/2116 1 1/2SM -SHRA BR SCT006 OVC030
     FM211600 31011KT 5SM -SHRA BR SCT008 OVC015
     FM212000 33010G16KT 6SM HZ VCSH OVC018
     FM220200 34008KT 5SM BR VCSH OVC015=


U.S. Dept. of Commerce
NOAA National Weather Service
1325 East West Highway
Silver Spring, MD 20910
E-mail: w-nws.webmaster@noaa.gov
Page last modified: May 16, 2007
NATIONAL WEATHER SERVICE: for Safety, for Work, for Fun - FOR LIFE